Date String (YYYY-MM-DD hh:mm:ss) UTC,Instrument flags,absolute air pressure of the measurement (hPa),sample flow rate (lpm),inlet stack bypass flow (lpm),air temperature of the measurement (°C),ambient temperature measured by the external sensor (°C),aerosol sample conditioner tube jacket temperature (°C),OPC LED temperature (°C),internal box temperature (°C),relative humidity of the measurement (%),span deviation,mass concentration of particles derived from Lorenz-Mie calculation of OPC scattering (μg/m³),mass concentration of particles derived from Lorenz-Mie calculation of OPC scattering (μg/m³),mass concentration of particles derived from Lorenz-Mie calculation of OPC scattering (μg/m³)
DateTimeUTC,F1_M11,P_M11,Q1_M11,Q2_M11,T1_M11,T2_M11,T3_M11,T4_M11,T5_M11,U1_M11,ZSPAN_M11,X2_M11,X0_M11,X1_M11
2024-01-30 22:00:00,SystemResetWarning,0833.1,5.00,000.00,026.0,025.1,000.0,034.1,027.5,12.0,0000.0,0003.20,0008.82,0002.69
2024-01-30 22:01:00,SystemResetWarning,0833.1,5.00,000.00,026.0,025.2,000.0,034.1,027.6,12.1,0000.0,0003.18,0008.59,0002.68
2024-01-30 22:02:00,SystemResetWarning,0833.2,5.01,000.00,026.1,025.3,000.0,034.1,027.6,12.1,0000.0,0003.17,0008.11,0002.67
2024-01-30 22:03:00,SystemResetWarning,0833.2,5.00,000.00,026.1,025.3,000.0,034.1,027.7,11.9,0000.0,0003.17,0007.85,0002.67
2024-01-30 22:04:00,SystemResetWarning,0833.2,5.00,000.00,026.2,025.4,000.0,034.2,027.7,12.1,0000.0,0003.14,0006.75,0002.64
2024-01-30 22:05:00,SystemResetWarning,0833.2,4.99,000.00,026.2,025.5,000.0,034.2,027.7,12.0,0000.0,0003.14,0006.70,0002.66
2024-01-30 22:06:00,SystemResetWarning,0833.2,4.98,000.00,026.2,025.5,000.0,034.2,027.8,11.9,0000.0,0003.24,0006.81,0002.79
2024-01-30 22:07:00,SystemResetWarning,0833.2,5.01,000.00,026.3,025.6,000.0,034.2,027.8,11.9,0000.0,0003.31,0007.55,0002.92
2024-01-30 22:08:00,SystemResetWarning,0833.2,5.00,000.00,026.3,025.6,000.0,034.3,027.9,11.9,0000.0,0003.38,0007.62,0003.06
2024-01-30 22:09:00,SystemResetWarning,0833.2,5.00,000.00,026.3,025.5,000.0,034.3,027.9,12.0,0000.0,0003.52,0007.67,0003.18
2024-01-30 22:10:00,SystemResetWarning,0833.2,5.00,000.00,026.3,023.8,000.0,034.3,027.8,11.9,0000.0,0003.67,0008.36,0003.28
2024-01-30 22:11:00,SystemResetWarning,0833.2,5.01,000.00,026.2,022.8,000.0,034.3,027.6,11.9,0000.0,0003.79,0008.63,0003.37
2024-01-30 22:12:00,SystemResetWarning,0833.2,5.00,000.00,026.1,022.8,000.0,034.3,027.2,12.0,0000.0,0003.90,0008.73,0003.46
2024-01-30 22:13:00,SystemResetWarning,0833.2,4.99,000.00,026.0,023.1,000.0,034.2,027.0,12.0,0000.0,0003.97,0008.74,0003.52
2024-01-30 22:14:00,SystemResetWarning,0833.2,5.00,000.00,026.0,023.5,000.0,034.2,027.0,11.9,0000.0,0004.01,0008.75,0003.58
2024-01-30 22:15:00,SystemResetWarning,0833.2,5.00,000.00,025.9,023.8,000.0,034.2,027.1,11.9,0000.0,0004.09,0008.87,0003.64
2024-01-30 22:16:00,SystemResetWarning,0833.2,5.01,000.00,025.9,024.1,000.0,034.2,027.2,11.8,0000.0,0004.18,0009.02,0003.71
2024-01-30 22:17:00,SystemResetWarning,0833.2,5.00,000.00,026.0,024.3,000.0,034.2,027.3,11.9,0000.0,0004.22,0009.39,0003.73
2024-01-30 22:18:00,SystemResetWarning,0833.2,4.99,000.00,026.0,024.5,000.0,034.2,027.4,11.8,0000.0,0004.26,0010.32,0003.76
2024-01-30 22:19:00,SystemResetWarning,0833.2,5.00,000.00,026.0,024.7,000.0,034.2,027.4,11.9,0000.0,0004.27,0010.16,0003.77
2024-01-30 22:20:00,SystemResetWarning,0833.2,5.01,000.00,026.0,024.9,000.0,034.2,027.5,11.8,0004.8,0004.24,0009.83,0003.76
2024-01-30 22:21:00,SystemResetWarning,0833.1,5.00,000.00,026.1,025.0,000.0,034.2,027.6,11.9,0002.9,0004.24,0009.63,0003.76
2024-01-30 22:22:00,SystemResetWarning,0833.2,4.99,000.00,026.1,025.1,000.0,034.2,027.6,11.9,0002.5,0004.28,0010.08,0003.77
2024-01-30 22:23:00,SystemResetWarning,0833.2,5.00,000.00,026.1,025.3,000.0,034.2,027.7,11.9,0001.5,0004.31,0010.35,0003.79
2024-01-30 22:24:00,SystemResetWarning,0833.2,5.01,000.00,026.2,025.3,000.0,034.2,027.7,11.8,0004.7,0004.35,0010.80,0003.81
2024-01-30 22:25:00,SystemResetWarning,0833.2,5.01,000.00,026.2,025.4,000.0,034.3,027.7,11.7,0002.2,0004.38,0011.83,0003.84
2024-01-30 22:26:00,SystemResetWarning,0833.2,5.01,000.00,026.3,025.5,000.0,034.3,027.8,11.6,0003.0,0004.41,0012.20,0003.88
2024-01-30 22:27:00,SystemResetWarning,0833.2,5.00,000.00,026.3,025.4,000.0,034.3,027.8,11.6,0001.7,0004.45,0012.35,0003.90
2024-01-30 22:28:00,SystemResetWarning,0833.2,4.98,000.00,026.3,023.9,000.0,034.3,027.8,11.5,0004.5,0004.45,0012.68,0003.90
2024-01-30 22:29:00,SystemResetWarning,0833.2,5.03,000.00,026.2,022.8,000.0,034.3,027.6,11.7,0005.3,0004.45,0011.37,0003.91
2024-01-30 22:30:00,SystemResetWarning,0833.2,4.99,000.00,026.1,022.8,000.0,034.3,027.2,11.7,0005.4,0004.46,0011.63,0003.91
2024-01-30 22:31:00,SystemResetWarning,0833.2,4.99,000.00,026.0,023.1,000.0,034.2,027.0,11.8,0006.2,0004.45,0011.91,0003.90
2024-01-30 22:32:00,SystemResetWarning,0833.2,5.00,000.00,025.9,023.4,000.0,034.2,027.0,12.0,0004.9,0004.47,0011.93,0003.89
2024-01-30 22:33:00,SystemResetWarning,0833.1,5.01,000.00,025.9,023.8,000.0,034.2,027.1,12.1,0006.5,0004.44,0011.44,0003.89
2024-01-30 22:34:00,SystemResetWarning,0833.2,5.01,000.00,025.9,024.1,000.0,034.2,027.2,11.9,0007.0,0004.44,0011.08,0003.89
2024-01-30 22:35:00,SystemResetWarning,0833.2,5.00,000.00,025.9,024.3,000.0,034.1,027.3,11.8,0007.6,0004.43,0010.72,0003.89
2024-01-30 22:36:00,SystemResetWarning,0833.2,5.00,000.00,026.0,024.5,000.0,034.1,027.4,11.7,0007.4,0004.42,0009.71,0003.89
2024-01-30 22:37:00,SystemResetWarning,0833.2,4.99,000.00,026.0,024.7,000.0,034.1,027.4,11.8,0007.4,0004.45,0009.28,0003.88
2024-01-30 22:38:00,SystemResetWarning,0833.2,4.99,000.00,026.0,024.9,000.0,034.2,027.5,11.7,0006.6,0004.42,0009.33,0003.86
2024-01-30 22:39:00,SystemResetWarning,0833.2,5.01,000.00,026.1,025.0,000.0,034.2,027.6,11.7,0006.8,0004.43,0009.31,0003.86
2024-01-30 22:40:00,SystemResetWarning,0833.2,5.00,000.00,026.1,025.1,000.0,034.2,027.6,11.7,0004.9,0004.42,0009.41,0003.86
2024-01-30 22:41:00,SystemResetWarning,0833.1,5.00,000.00,026.1,025.2,000.0,034.2,027.7,11.7,0003.3,0004.41,0009.42,0003.85
2024-01-30 22:42:00,SystemResetWarning,0833.1,5.00,000.00,026.2,025.3,000.0,034.2,027.7,11.6,-000.1,0004.40,0009.15,0003.86
2024-01-30 22:43:00,SystemResetWarning,0833.2,5.00,000.00,026.2,025.4,000.0,034.2,027.7,11.6,0002.8,0004.39,0009.14,0003.85
2024-01-30 22:44:00,SystemResetWarning,0833.2,4.99,000.00,026.2,024.8,000.0,034.3,027.8,11.6,0000.1,0004.36,0009.08,0003.85
2024-01-30 22:45:00,SystemResetWarning,0833.1,5.00,000.00,026.2,023.0,000.0,034.3,027.6,11.6,0000.2,0004.33,0009.08,0003.83
2024-01-30 22:46:00,SystemResetWarning,0833.1,5.01,000.00,026.1,022.6,000.0,034.2,027.4,11.6,0000.4,0004.32,0009.19,0003.82
2024-01-30 22:47:00,SystemResetWarning,0833.0,5.01,000.00,026.0,022.8,000.0,034.2,027.0,11.7,-000.1,0004.34,0009.30,0003.82
2024-01-30 22:48:00,SystemResetWarning,0833.3,5.00,000.00,025.9,023.1,000.0,034.1,026.9,11.8,0000.0,0004.32,0009.44,0003.80
2024-01-30 22:49:00,SystemResetWarning,0833.1,5.00,000.00,025.9,023.5,000.0,034.1,027.0,11.8,0009.3,0004.28,0009.39,0003.78
2024-01-30 22:50:00,SystemResetWarning,0833.1,4.99,000.00,025.9,023.8,000.0,034.1,027.1,11.8,0011.2,0004.24,0009.77,0003.78
2024-01-30 22:51:00,SystemResetWarning,0833.1,5.00,000.00,025.9,024.1,000.0,034.1,027.2,11.8,0011.2,0004.20,0010.44,0003.75
2024-01-30 22:52:00,SystemResetWarning,0833.1,5.00,000.00,025.9,024.3,000.0,034.1,027.3,11.7,0009.3,0004.17,0009.90,0003.75
2024-01-30 22:53:00,SystemResetWarning,0833.1,5.00,000.00,025.9,024.5,000.0,034.1,027.4,11.7,0007.3,0004.15,0010.28,0003.74
2024-01-30 22:54:00,SystemResetWarning,0833.1,5.00,000.00,026.0,024.7,000.0,034.1,027.4,11.9,0006.4,0004.18,0010.79,0003.75
2024-01-30 22:55:00,SystemResetWarning,0833.2,5.00,000.00,026.0,024.9,000.0,034.1,027.5,11.8,0005.9,0004.25,0012.39,0003.76
2024-01-30 22:56:00,SystemResetWarning,0833.2,5.00,000.00,026.0,025.0,000.0,034.1,027.6,11.7,0007.0,0004.25,0012.74,0003.76
2024-01-30 22:57:00,SystemResetWarning,0833.1,5.00,000.00,026.1,025.1,000.0,034.1,027.6,11.8,0004.4,0004.25,0012.88,0003.77
2024-01-30 22:58:00,SystemResetWarning,0833.1,5.00,000.00,026.1,025.2,000.0,034.1,027.6,11.7,0004.2,0004.22,0013.19,0003.77
2024-01-30 22:59:00,SystemResetWarning,0833.1,5.00,000.00,026.2,025.3,000.0,034.2,027.7,11.7,0002.5,0004.22,0013.65,0003.76
